owner,sensor,date,latitude,longitude,vertical_datum,direction_of_sea_water_velocity,sea_water_speed,upward_sea_water_velocity,qcFlag 
TABS,ioos:station:wmo:42043:1,2009-04-01T00:00:00Z,28.9818,-94.9186,2.0,236.0331554,39.09017779,-99999.0,'11111222,11111222,99999999' 
TABS,ioos:station:wmo:42043:1,2009-04-01T00:30:00Z,28.9818,-94.9186,2.0,240.7998818,38.72043517,-99999.0,'11111222,11111222,99999999' 
TABS,ioos:station:wmo:42043:1,2009-04-01T01:00:00Z,28.9818,-94.9186,2.0,244.9553561,35.38705978,-99999.0,'11111222,11111222,99999999' 
TABS,ioos:station:wmo:42043:1,2009-04-01T01:30:00Z,28.9818,-94.9186,2.0,245.9302109,34.81729599,-99999.0,'11111222,11111222,99999999' 
TABS,ioos:station:wmo:42043:1,2009-04-01T02:00:00Z,28.9818,-94.9186,2.0,246.8091263,37.22800021,-99999.0,'11111222,11111222,99999999' 
TABS,ioos:station:wmo:42043:1,2009-04-01T02:30:00Z,28.9818,-94.9186,2.0,251.2851341,35.00050571,-99999.0,'11111222,11111222,99999999' 
TABS,ioos:station:wmo:42043:1,2009-04-01T03:00:00Z,28.9818,-94.9186,2.0,251.6985415,37.89683892,-99999.0,'11111222,11111222,99999999' 
TABS,ioos:station:wmo:42043:1,2009-04-01T03:30:00Z,28.9818,-94.9186,2.0,252.9611418,37.37024752,-99999.0,'11111222,11111222,99999999' 
TABS,ioos:station:wmo:42043:1,2009-04-01T04:00:00Z,28.9818,-94.9186,2.0,253.4298473,38.57176299,-99999.0,'11111222,11111222,99999999' 
TABS,ioos:station:wmo:42043:1,2009-04-01T04:30:00Z,28.9818,-94.9186,2.0,256.4599209,34.98222692,-99999.0,'11111222,11111222,99999999' 
TABS,ioos:station:wmo:42043:1,2009-04-01T05:00:00Z,28.9818,-94.9186,2.0,262.7370254,33.06527484,-99999.0,'11111222,11111222,99999999' 
TABS,ioos:station:wmo:42043:1,2009-04-01T05:30:00Z,28.9818,-94.9186,2.0,267.7274276,31.02439202,-99999.0,'11111222,11111222,99999999' 
TABS,ioos:station:wmo:42043:1,2009-04-01T06:00:00Z,28.9818,-94.9186,2.0,270.6079205,27.35153743,-99999.0,'11111222,11111222,99999999' 
TABS,ioos:station:wmo:42043:1,2009-04-01T06:30:00Z,28.9818,-94.9186,2.0,269.9785145,27.20000184,-99999.0,'11111222,11111222,99999999' 
TABS,ioos:station:wmo:42043:1,2009-04-01T07:00:00Z,28.9818,-94.9186,2.0,272.9733477,27.95762687,-99999.0,'11111222,11111222,99999999' 
TABS,ioos:station:wmo:42043:1,2009-04-01T07:30:00Z,28.9818,-94.9186,2.0,273.0613243,25.65660344,-99999.0,'11111222,11111222,99999999' 
TABS,ioos:station:wmo:42043:1,2009-04-01T08:00:00Z,28.9818,-94.9186,2.0,286.6313357,27.32297202,-99999.0,'11111222,11111222,99999999' 
TABS,ioos:station:wmo:42043:1,2009-04-01T08:30:00Z,28.9818,-94.9186,2.0,286.8805699,26.68996253,-99999.0,'11111222,11111222,99999999' 
TABS,ioos:station:wmo:42043:1,2009-04-01T09:00:00Z,28.9818,-94.9186,2.0,283.9144435,26.15752664,-99999.0,'11111222,11111222,99999999' 
TABS,ioos:station:wmo:42043:1,2009-04-01T09:30:00Z,28.9818,-94.9186,2.0,283.1077737,29.32398506,-99999.0,'11111222,11111222,99999999' 
TABS,ioos:station:wmo:42043:1,2009-04-01T10:00:00Z,28.9818,-94.9186,2.0,285.860775,30.55314386,-99999.0,'11111222,11111222,99999999' 
TABS,ioos:station:wmo:42043:1,2009-04-01T10:30:00Z,28.9818,-94.9186,2.0,296.7341743,30.36593486,-99999.0,'11111222,11111222,99999999' 
TABS,ioos:station:wmo:42043:1,2009-04-01T11:00:00Z,28.9818,-94.9186,2.0,292.709537,28.1308034,-99999.0,'11111222,11111222,99999999' 
TABS,ioos:station:wmo:42043:1,2009-04-01T11:30:00Z,28.9818,-94.9186,2.0,291.931781,30.28141674,-99999.0,'11111222,11111222,99999999' 
TABS,ioos:station:wmo:42043:1,2009-04-01T12:00:00Z,28.9818,-94.9186,2.0,283.1188575,34.67491601,-99999.0,'11111222,11111222,99999999' 
TABS,ioos:station:wmo:42043:1,2009-04-01T12:30:00Z,28.9818,-94.9186,2.0,292.3873646,31.79641646,-99999.0,'11111222,11111222,99999999' 
TABS,ioos:station:wmo:42043:1,2009-04-01T13:00:00Z,28.9818,-94.9186,2.0,287.3848895,29.15161231,-99999.0,'11111222,11111222,99999999' 
TABS,ioos:station:wmo:42043:1,2009-04-01T13:30:00Z,28.9818,-94.9186,2.0,285.486789,31.72169289,-99999.0,'11111222,11111222,99999999' 
TABS,ioos:station:wmo:42043:1,2009-04-01T14:00:00Z,28.9818,-94.9186,2.0,283.659393,30.5747036,-99999.0,'11111222,11111222,99999999' 
TABS,ioos:station:wmo:42043:1,2009-04-01T14:30:00Z,28.9818,-94.9186,2.0,282.6275281,30.96903776,-99999.0,'11111222,11111222,99999999' 
TABS,ioos:station:wmo:42043:1,2009-04-01T15:00:00Z,28.9818,-94.9186,2.0,278.9804212,32.2249872,-99999.0,'11111222,11111222,99999999' 
TABS,ioos:station:wmo:42043:1,2009-04-01T15:30:00Z,28.9818,-94.9186,2.0,273.2041716,34.53397313,-99999.0,'11111222,11111222,99999999' 
TABS,ioos:station:wmo:42043:1,2009-04-01T16:00:00Z,28.9818,-94.9186,2.0,270.7680999,34.33308171,-99999.0,'11111222,11111222,99999999' 
TABS,ioos:station:wmo:42043:1,2009-04-01T16:30:00Z,28.9818,-94.9186,2.0,270.9314348,34.4645499,-99999.0,'11111222,11111222,99999999' 
TABS,ioos:station:wmo:42043:1,2009-04-01T17:00:00Z,28.9818,-94.9186,2.0,271.2062589,28.98641923,-99999.0,'11111222,11111222,99999999' 
TABS,ioos:station:wmo:42043:1,2009-04-01T17:30:00Z,28.9818,-94.9186,2.0,266.7843265,28.70518594,-99999.0,'11111222,11111222,99999999' 
TABS,ioos:station:wmo:42043:1,2009-04-01T18:00:00Z,28.9818,-94.9186,2.0,263.045697,29.48690896,-99999.0,'11111222,11111222,99999999' 
TABS,ioos:station:wmo:42043:1,2009-04-01T18:30:00Z,28.9818,-94.9186,2.0,262.3647107,30.10690286,-99999.0,'11111222,11111222,99999999' 
TABS,ioos:station:wmo:42043:1,2009-04-01T19:00:00Z,28.9818,-94.9186,2.0,262.2720205,26.77313766,-99999.0,'11111222,11111222,99999999' 
TABS,ioos:station:wmo:42043:1,2009-04-01T19:30:00Z,28.9818,-94.9186,2.0,257.008392,25.26671328,-99999.0,'11111222,11111222,99999999' 
TABS,ioos:station:wmo:42043:1,2009-04-01T20:00:00Z,28.9818,-94.9186,2.0,256.188919,25.26028108,-99999.0,'11111222,11111222,99999999' 
TABS,ioos:station:wmo:42043:1,2009-04-01T20:30:00Z,28.9818,-94.9186,2.0,260.7232026,24.31802624,-99999.0,'11111222,11111222,99999999' 
TABS,ioos:station:wmo:42043:1,2009-04-01T21:00:00Z,28.9818,-94.9186,2.0,256.7256463,20.60037378,-99999.0,'11111222,11111222,99999999' 
TABS,ioos:station:wmo:42043:1,2009-04-01T21:30:00Z,28.9818,-94.9186,2.0,264.2311472,20.69479403,-99999.0,'11111222,11111222,99999999' 
TABS,ioos:station:wmo:42043:1,2009-04-01T22:00:00Z,28.9818,-94.9186,2.0,261.840196,22.12395986,-99999.0,'11111222,11111222,99999999' 
TABS,ioos:station:wmo:42043:1,2009-04-01T22:30:00Z,28.9818,-94.9186,2.0,257.7884912,21.32242247,-99999.0,'11111222,11111222,99999999' 
TABS,ioos:station:wmo:42043:1,2009-04-01T23:00:00Z,28.9818,-94.9186,2.0,255.0214028,20.50673304,-99999.0,'11111222,11111222,99999999' 
TABS,ioos:station:wmo:42043:1,2009-04-01T23:30:00Z,28.9818,-94.9186,2.0,248.664531,18.93783779,-99999.0,'11111222,11111222,99999999' 
TABS,ioos:station:wmo:42043:1,2009-04-02T00:00:00Z,28.9818,-94.9186,2.0,249.4762764,22.56202562,-99999.0,'11111222,11111222,99999999' 
TABS,ioos:station:wmo:42043:1,2009-04-02T00:30:00Z,28.9818,-94.9186,2.0,250.8455189,26.45453647,-99999.0,'11111222,11111222,99999999' 
TABS,ioos:station:wmo:42043:1,2009-04-02T01:00:00Z,28.9818,-94.9186,2.0,253.0241193,26.81848989,-99999.0,'11111222,11111222,99999999' 
TABS,ioos:station:wmo:42043:1,2009-04-02T01:30:00Z,28.9818,-94.9186,2.0,245.2262341,23.02934215,-99999.0,'11111222,11111222,99999999' 
TABS,ioos:station:wmo:42043:1,2009-04-02T02:00:00Z,28.9818,-94.9186,2.0,239.2420355,25.26362009,-99999.0,'11111222,11111222,99999999' 
TABS,ioos:station:wmo:42043:1,2009-04-02T02:30:00Z,28.9818,-94.9186,2.0,227.676455,28.01077828,-99999.0,'11111222,11111222,99999999' 
TABS,ioos:station:wmo:42043:1,2009-04-02T03:00:00Z,28.9818,-94.9186,2.0,227.8646366,31.68970811,-99999.0,'11111222,11111222,99999999' 
TABS,ioos:station:wmo:42043:1,2009-04-02T03:30:00Z,28.9818,-94.9186,2.0,229.0178888,35.11639218,-99999.0,'11111222,11111222,99999999' 
TABS,ioos:station:wmo:42043:1,2009-04-02T04:00:00Z,28.9818,-94.9186,2.0,235.8900339,37.87594487,-99999.0,'11111222,11111222,99999999' 
TABS,ioos:station:wmo:42043:1,2009-04-02T04:30:00Z,28.9818,-94.9186,2.0,234.0887855,41.58382498,-99999.0,'11111222,11111222,99999999' 
TABS,ioos:station:wmo:42043:1,2009-04-02T05:00:00Z,28.9818,-94.9186,2.0,238.3258717,43.04087476,-99999.0,'11111222,11111222,99999999' 
TABS,ioos:station:wmo:42043:1,2009-04-02T05:30:00Z,28.9818,-94.9186,2.0,236.5585591,44.04083787,-99999.0,'11111222,11111222,99999999' 
TABS,ioos:station:wmo:42043:1,2009-04-02T06:00:00Z,28.9818,-94.9186,2.0,239.4456359,42.68708938,-99999.0,'11111222,11111222,99999999' 
TABS,ioos:station:wmo:42043:1,2009-04-02T06:30:00Z,28.9818,-94.9186,2.0,239.3810453,40.42638,-99999.0,'11111222,11111222,99999999' 
TABS,ioos:station:wmo:42043:1,2009-04-02T07:00:00Z,28.9818,-94.9186,2.0,243.1695972,40.61190097,-99999.0,'11111222,11111222,99999999' 
TABS,ioos:station:wmo:42043:1,2009-04-02T07:30:00Z,28.9818,-94.9186,2.0,245.1012733,37.67132198,-99999.0,'11111222,11111222,99999999' 
TABS,ioos:station:wmo:42043:1,2009-04-02T08:00:00Z,28.9818,-94.9186,2.0,247.294102,40.13004485,-99999.0,'11111222,11111222,99999999' 
TABS,ioos:station:wmo:42043:1,2009-04-02T08:30:00Z,28.9818,-94.9186,2.0,247.9927712,38.32219331,-99999.0,'11111222,11111222,99999999' 
TABS,ioos:station:wmo:42043:1,2009-04-02T09:00:00Z,28.9818,-94.9186,2.0,259.409485,35.74890907,-99999.0,'11111222,11111222,99999999' 
TABS,ioos:station:wmo:42043:1,2009-04-02T09:30:00Z,28.9818,-94.9186,2.0,256.7764416,30.25208918,-99999.0,'11111222,11111222,99999999' 
TABS,ioos:station:wmo:42043:1,2009-04-02T10:00:00Z,28.9818,-94.9186,2.0,266.9197389,28.29086248,-99999.0,'11111222,11111222,99999999' 
TABS,ioos:station:wmo:42043:1,2009-04-02T10:30:00Z,28.9818,-94.9186,2.0,260.654122,26.60309944,-99999.0,'11111222,11111222,99999999' 
TABS,ioos:station:wmo:42043:1,2009-04-02T11:00:00Z,28.9818,-94.9186,2.0,265.6614549,29.74521978,-99999.0,'11111222,11111222,99999999' 
TABS,ioos:station:wmo:42043:1,2009-04-02T11:30:00Z,28.9818,-94.9186,2.0,268.8326885,26.02539721,-99999.0,'11111222,11111222,99999999' 
TABS,ioos:station:wmo:42043:1,2009-04-02T12:00:00Z,28.9818,-94.9186,2.0,281.9780095,22.88830706,-99999.0,'11111222,11111222,99999999' 
TABS,ioos:station:wmo:42043:1,2009-04-02T12:30:00Z,28.9818,-94.9186,2.0,284.532061,22.15888309,-99999.0,'11111222,11111222,99999999' 
TABS,ioos:station:wmo:42043:1,2009-04-02T13:00:00Z,28.9818,-94.9186,2.0,272.7025561,21.42382085,-99999.0,'11111222,11111222,99999999' 
TABS,ioos:station:wmo:42043:1,2009-04-02T13:30:00Z,28.9818,-94.9186,2.0,276.710242,20.71186375,-99999.0,'11111222,11111222,99999999' 
TABS,ioos:station:wmo:42043:1,2009-04-02T14:00:00Z,28.9818,-94.9186,2.0,266.5254769,20.62790828,-99999.0,'11111222,11111222,99999999' 
TABS,ioos:station:wmo:42043:1,2009-04-02T14:30:00Z,28.9818,-94.9186,2.0,250.7844307,19.5067373,-99999.0,'11111222,11111222,99999999' 
TABS,ioos:station:wmo:42043:1,2009-04-02T15:00:00Z,28.9818,-94.9186,2.0,233.800035,19.31932193,-99999.0,'11111222,11111222,99999999' 
TABS,ioos:station:wmo:42043:1,2009-04-02T15:30:00Z,28.9818,-94.9186,2.0,235.1107533,24.12641913,-99999.0,'11111222,11111222,99999999' 
TABS,ioos:station:wmo:42043:1,2009-04-02T16:00:00Z,28.9818,-94.9186,2.0,230.4896935,23.57702483,-99999.0,'11111222,11111222,99999999' 
TABS,ioos:station:wmo:42043:1,2009-04-02T16:30:00Z,28.9818,-94.9186,2.0,222.4716762,21.96289826,-99999.0,'11111222,11111222,99999999' 
TABS,ioos:station:wmo:42043:1,2009-04-02T17:00:00Z,28.9818,-94.9186,2.0,220.3561702,24.36910544,-99999.0,'11111222,11111222,99999999' 
TABS,ioos:station:wmo:42043:1,2009-04-02T17:30:00Z,28.9818,-94.9186,2.0,210.5789449,24.53171009,-99999.0,'11111222,11111222,99999999' 
TABS,ioos:station:wmo:42043:1,2009-04-02T18:00:00Z,28.9818,-94.9186,2.0,216.0928382,24.34223696,-99999.0,'11111222,11111222,99999999' 
TABS,ioos:station:wmo:42043:1,2009-04-02T18:30:00Z,28.9818,-94.9186,2.0,212.7512049,25.39758256,-99999.0,'11111222,11111222,99999999' 
TABS,ioos:station:wmo:42043:1,2009-04-02T19:00:00Z,28.9818,-94.9186,2.0,216.8829039,25.8420007,-99999.0,'11111222,11111222,99999999' 
TABS,ioos:station:wmo:42043:1,2009-04-02T19:30:00Z,28.9818,-94.9186,2.0,203.2776094,22.77380952,-99999.0,'11111222,11111222,99999999' 
TABS,ioos:station:wmo:42043:1,2009-04-02T20:00:00Z,28.9818,-94.9186,2.0,200.5505497,25.60977352,-99999.0,'11111222,11111222,99999999' 
TABS,ioos:station:wmo:42043:1,2009-04-02T20:30:00Z,28.9818,-94.9186,2.0,191.9246745,26.8596519,-99999.0,'11111222,11111222,99999999' 
TABS,ioos:station:wmo:42043:1,2009-04-02T21:00:00Z,28.9818,-94.9186,2.0,190.6019651,20.16423815,-99999.0,'11111222,11111222,99999999' 
TABS,ioos:station:wmo:42043:1,2009-04-02T21:30:00Z,28.9818,-94.9186,2.0,190.8380042,17.39020701,-99999.0,'11111222,11111222,99999999' 
TABS,ioos:station:wmo:42043:1,2009-04-02T22:00:00Z,28.9818,-94.9186,2.0,189.0433765,21.82126028,-99999.0,'11111222,11111222,99999999' 
TABS,ioos:station:wmo:42043:1,2009-04-02T22:30:00Z,28.9818,-94.9186,2.0,189.7632294,21.58259716,-99999.0,'11111222,11111222,99999999' 
TABS,ioos:station:wmo:42043:1,2009-04-02T23:00:00Z,28.9818,-94.9186,2.0,192.9732639,18.30731275,-99999.0,'11111222,11111222,99999999' 
TABS,ioos:station:wmo:42043:1,2009-04-02T23:30:00Z,28.9818,-94.9186,2.0,201.5140524,16.30611235,-99999.0,'11111222,11111222,99999999' 
TABS,ioos:station:wmo:42043:1,2009-04-03T00:00:00Z,28.9818,-94.9186,2.0,206.229617,14.52574611,-99999.0,'11111222,11111222,99999999' 
TABS,ioos:station:wmo:42043:1,2009-04-03T00:30:00Z,28.9818,-94.9186,2.0,206.6778832,15.858225,-99999.0,'11111222,11111222,99999999' 
TABS,ioos:station:wmo:42043:1,2009-04-03T01:00:00Z,28.9818,-94.9186,2.0,200.0240667,14.25154378,-99999.0,'11111222,11111222,99999999' 
TABS,ioos:station:wmo:42043:1,2009-04-03T01:30:00Z,28.9818,-94.9186,2.0,187.4858022,16.73261785,-99999.0,'11111222,11111222,99999999' 
TABS,ioos:station:wmo:42043:1,2009-04-03T02:00:00Z,28.9818,-94.9186,2.0,203.9496833,13.91836556,-99999.0,'11111222,11111222,99999999' 
TABS,ioos:station:wmo:42043:1,2009-04-03T02:30:00Z,28.9818,-94.9186,2.0,198.5459488,16.28576065,-99999.0,'11111222,11111222,99999999' 
TABS,ioos:station:wmo:42043:1,2009-04-03T03:00:00Z,28.9818,-94.9186,2.0,213.2859102,14.55846833,-99999.0,'11111222,11111222,99999999' 
TABS,ioos:station:wmo:42043:1,2009-04-03T03:30:00Z,28.9818,-94.9186,2.0,204.7517089,15.54845652,-99999.0,'11111222,11111222,99999999' 
TABS,ioos:station:wmo:42043:1,2009-04-03T04:00:00Z,28.9818,-94.9186,2.0,202.0043232,15.18626024,-99999.0,'11111222,11111222,99999999' 
TABS,ioos:station:wmo:42043:1,2009-04-03T04:30:00Z,28.9818,-94.9186,2.0,206.4516101,15.84928074,-99999.0,'11111222,11111222,99999999' 
TABS,ioos:station:wmo:42043:1,2009-04-03T05:00:00Z,28.9818,-94.9186,2.0,221.5314632,11.22112294,-99999.0,'11111222,11111222,99999999' 
TABS,ioos:station:wmo:42043:1,2009-04-03T05:30:00Z,28.9818,-94.9186,2.0,209.7981111,10.62482,-99999.0,'11111222,11111222,99999999' 
TABS,ioos:station:wmo:42043:1,2009-04-03T06:00:00Z,28.9818,-94.9186,2.0,212.4225755,7.273898542,-99999.0,'11133222,11111222,99999999' 
TABS,ioos:station:wmo:42043:1,2009-04-03T06:30:00Z,28.9818,-94.9186,2.0,183.8138555,6.163651515,-99999.0,'11133222,11111222,99999999' 
TABS,ioos:station:wmo:42043:1,2009-04-03T07:00:00Z,28.9818,-94.9186,2.0,177.4920937,5.485252957,-99999.0,'11133222,11111222,99999999' 
TABS,ioos:station:wmo:42043:1,2009-04-03T07:30:00Z,28.9818,-94.9186,2.0,185.2810178,2.390146439,-99999.0,'11133222,11111222,99999999' 
TABS,ioos:station:wmo:42043:1,2009-04-03T08:00:00Z,28.9818,-94.9186,2.0,328.369623,1.620771421,-99999.0,'11133222,11111222,99999999' 
TABS,ioos:station:wmo:42043:1,2009-04-03T08:30:00Z,28.9818,-94.9186,2.0,16.10610562,4.902417771,-99999.0,'11133222,11111222,99999999' 
TABS,ioos:station:wmo:42043:1,2009-04-03T09:00:00Z,28.9818,-94.9186,2.0,16.32702579,2.063201396,-99999.0,'11133222,11111222,99999999' 
TABS,ioos:station:wmo:42043:1,2009-04-03T09:30:00Z,28.9818,-94.9186,2.0,53.39460672,8.234087685,-99999.0,'11133222,11111222,99999999' 
TABS,ioos:station:wmo:42043:1,2009-04-03T10:00:00Z,28.9818,-94.9186,2.0,55.15958847,10.22241165,-99999.0,'11111222,11111222,99999999' 
TABS,ioos:station:wmo:42043:1,2009-04-03T10:30:00Z,28.9818,-94.9186,2.0,49.48752751,11.20664089,-99999.0,'11111222,11111222,99999999' 
TABS,ioos:station:wmo:42043:1,2009-04-03T11:00:00Z,28.9818,-94.9186,2.0,50.78166731,12.49449479,-99999.0,'11111222,11111222,99999999' 
TABS,ioos:station:wmo:42043:1,2009-04-03T11:30:00Z,28.9818,-94.9186,2.0,37.5137661,13.35084267,-99999.0,'11111222,11111222,99999999' 
TABS,ioos:station:wmo:42043:1,2009-04-03T12:00:00Z,28.9818,-94.9186,2.0,44.39275364,16.009797,-99999.0,'11111222,11111222,99999999' 
TABS,ioos:station:wmo:42043:1,2009-04-03T12:30:00Z,28.9818,-94.9186,2.0,43.51048327,14.9603643,-99999.0,'11111222,11111222,99999999' 
TABS,ioos:station:wmo:42043:1,2009-04-03T13:00:00Z,28.9818,-94.9186,2.0,35.60751231,18.15440718,-99999.0,'11111222,11111222,99999999' 
TABS,ioos:station:wmo:42043:1,2009-04-03T13:30:00Z,28.9818,-94.9186,2.0,29.72480972,21.09582897,-99999.0,'11111222,11111222,99999999' 
TABS,ioos:station:wmo:42043:1,2009-04-03T14:00:00Z,28.9818,-94.9186,2.0,30.21311346,18.97794773,-99999.0,'11111222,11111222,99999999' 
TABS,ioos:station:wmo:42043:1,2009-04-03T14:30:00Z,28.9818,-94.9186,2.0,40.78022564,20.85254181,-99999.0,'11111222,11111222,99999999' 
TABS,ioos:station:wmo:42043:1,2009-04-03T15:00:00Z,28.9818,-94.9186,2.0,31.84152909,24.07265046,-99999.0,'11111222,11111222,99999999' 
TABS,ioos:station:wmo:42043:1,2009-04-03T15:30:00Z,28.9818,-94.9186,2.0,34.44965334,20.50629416,-99999.0,'11111222,11111222,99999999' 
TABS,ioos:station:wmo:42043:1,2009-04-03T16:00:00Z,28.9818,-94.9186,2.0,33.24284025,19.53713643,-99999.0,'11111222,11111222,99999999' 
TABS,ioos:station:wmo:42043:1,2009-04-03T16:30:00Z,28.9818,-94.9186,2.0,40.37920375,16.50093937,-99999.0,'11111222,11111222,99999999' 
TABS,ioos:station:wmo:42043:1,2009-04-03T17:00:00Z,28.9818,-94.9186,2.0,35.69677338,15.92133788,-99999.0,'11111222,11111222,99999999' 
TABS,ioos:station:wmo:42043:1,2009-04-03T17:30:00Z,28.9818,-94.9186,2.0,37.13059841,14.51215008,-99999.0,'11111222,11111222,99999999' 
TABS,ioos:station:wmo:42043:1,2009-04-03T18:00:00Z,28.9818,-94.9186,2.0,32.77808225,12.89286624,-99999.0,'11111222,11111222,99999999' 
TABS,ioos:station:wmo:42043:1,2009-04-03T18:30:00Z,28.9818,-94.9186,2.0,35.67478218,13.61496236,-99999.0,'11111222,11111222,99999999' 
TABS,ioos:station:wmo:42043:1,2009-04-03T19:00:00Z,28.9818,-94.9186,2.0,31.42365107,8.97652494,-99999.0,'11133222,11111222,99999999' 
TABS,ioos:station:wmo:42043:1,2009-04-03T19:30:00Z,28.9818,-94.9186,2.0,32.95898817,11.08381252,-99999.0,'11111222,11111222,99999999' 
TABS,ioos:station:wmo:42043:1,2009-04-03T20:00:00Z,28.9818,-94.9186,2.0,31.44607009,11.6160105,-99999.0,'11111222,11111222,99999999' 
TABS,ioos:station:wmo:42043:1,2009-04-03T20:30:00Z,28.9818,-94.9186,2.0,24.11361403,13.48688993,-99999.0,'11111222,11111222,99999999' 
TABS,ioos:station:wmo:42043:1,2009-04-03T21:00:00Z,28.9818,-94.9186,2.0,16.86517342,12.58110091,-99999.0,'11111222,11111222,99999999' 
TABS,ioos:station:wmo:42043:1,2009-04-03T21:30:00Z,28.9818,-94.9186,2.0,14.73769093,14.4659082,-99999.0,'11111222,11111222,99999999' 
TABS,ioos:station:wmo:42043:1,2009-04-03T22:00:00Z,28.9818,-94.9186,2.0,14.21653588,14.65892561,-99999.0,'11111222,11111222,99999999' 
TABS,ioos:station:wmo:42043:1,2009-04-03T22:30:00Z,28.9818,-94.9186,2.0,15.14538959,16.91760326,-99999.0,'11111222,11111222,99999999' 
TABS,ioos:station:wmo:42043:1,2009-04-03T23:00:00Z,28.9818,-94.9186,2.0,14.51632477,17.95311672,-99999.0,'11111222,11111222,99999999' 
TABS,ioos:station:wmo:42043:1,2009-04-03T23:30:00Z,28.9818,-94.9186,2.0,28.09877709,18.0470607,-99999.0,'11111222,11111222,99999999' 
TABS,ioos:station:wmo:42043:1,2009-04-04T00:00:00Z,28.9818,-94.9186,2.0,26.59435018,17.57996871,-99999.0,'11111222,11111222,99999999' 
TABS,ioos:station:wmo:42043:1,2009-04-04T00:30:00Z,28.9818,-94.9186,2.0,36.06187158,17.15770672,-99999.0,'11111222,11111222,99999999' 
TABS,ioos:station:wmo:42043:1,2009-04-04T01:00:00Z,28.9818,-94.9186,2.0,35.77293237,16.71306375,-99999.0,'11111222,11111222,99999999' 
TABS,ioos:station:wmo:42043:1,2009-04-04T01:30:00Z,28.9818,-94.9186,2.0,41.9378253,13.76581273,-99999.0,'11111222,11111222,99999999' 
TABS,ioos:station:wmo:42043:1,2009-04-04T02:00:00Z,28.9818,-94.9186,2.0,41.69077669,12.49419865,-99999.0,'11111222,11111222,99999999' 
TABS,ioos:station:wmo:42043:1,2009-04-04T02:30:00Z,28.9818,-94.9186,2.0,41.75033488,10.6024384,-99999.0,'11111222,11111222,99999999' 
TABS,ioos:station:wmo:42043:1,2009-04-04T03:00:00Z,28.9818,-94.9186,2.0,41.87953345,9.482220204,-99999.0,'11133222,11111222,99999999' 
TABS,ioos:station:wmo:42043:1,2009-04-04T03:30:00Z,28.9818,-94.9186,2.0,37.65502092,8.904835765,-99999.0,'11133222,11111222,99999999' 
TABS,ioos:station:wmo:42043:1,2009-04-04T04:00:00Z,28.9818,-94.9186,2.0,47.87413582,5.217940207,-99999.0,'11133222,11111222,99999999' 
TABS,ioos:station:wmo:42043:1,2009-04-04T04:30:00Z,28.9818,-94.9186,2.0,59.98588051,5.277736257,-99999.0,'11133222,11111222,99999999' 
TABS,ioos:station:wmo:42043:1,2009-04-04T05:00:00Z,28.9818,-94.9186,2.0,68.68564275,3.714040926,-99999.0,'11133222,11111222,99999999' 
TABS,ioos:station:wmo:42043:1,2009-04-04T05:30:00Z,28.9818,-94.9186,2.0,71.33312938,0.781088983,-99999.0,'11133222,11111222,99999999' 
TABS,ioos:station:wmo:42043:1,2009-04-04T06:00:00Z,28.9818,-94.9186,2.0,191.1597073,1.498332406,-99999.0,'11133222,11111222,99999999' 
TABS,ioos:station:wmo:42043:1,2009-04-04T06:30:00Z,28.9818,-94.9186,2.0,199.0932369,5.502726597,-99999.0,'11133222,11111222,99999999' 
TABS,ioos:station:wmo:42043:1,2009-04-04T07:00:00Z,28.9818,-94.9186,2.0,202.7373227,6.364628819,-99999.0,'11133222,11111222,99999999' 
TABS,ioos:station:wmo:42043:1,2009-04-04T07:30:00Z,28.9818,-94.9186,2.0,215.1884504,7.635286504,-99999.0,'11133222,11111222,99999999' 
TABS,ioos:station:wmo:42043:1,2009-04-04T08:00:00Z,28.9818,-94.9186,2.0,215.4704166,6.96207584,-99999.0,'11133222,11111222,99999999' 
TABS,ioos:station:wmo:42043:1,2009-04-04T08:30:00Z,28.9818,-94.9186,2.0,225.7754,7.312154265,-99999.0,'11133222,11111222,99999999' 
TABS,ioos:station:wmo:42043:1,2009-04-04T09:00:00Z,28.9818,-94.9186,2.0,224.2611073,7.679817706,-99999.0,'11133222,11111222,99999999' 
TABS,ioos:station:wmo:42043:1,2009-04-04T09:30:00Z,28.9818,-94.9186,2.0,223.3890559,9.811447396,-99999.0,'11133222,11111222,99999999' 
TABS,ioos:station:wmo:42043:1,2009-04-04T10:00:00Z,28.9818,-94.9186,2.0,234.4844797,8.882482761,-99999.0,'11133222,11111222,99999999' 
TABS,ioos:station:wmo:42043:1,2009-04-04T10:30:00Z,28.9818,-94.9186,2.0,245.9041437,12.24713844,-99999.0,'11111222,11111222,99999999' 
TABS,ioos:station:wmo:42043:1,2009-04-04T11:00:00Z,28.9818,-94.9186,2.0,246.3702566,9.081409582,-99999.0,'11133222,11111222,99999999' 
TABS,ioos:station:wmo:42043:1,2009-04-04T11:30:00Z,28.9818,-94.9186,2.0,260.4625172,10.07931049,-99999.0,'11111222,11111222,99999999' 
TABS,ioos:station:wmo:42043:1,2009-04-04T12:00:00Z,28.9818,-94.9186,2.0,273.8054539,8.43860178,-99999.0,'11133222,11111222,99999999' 
TABS,ioos:station:wmo:42043:1,2009-04-04T12:30:00Z,28.9818,-94.9186,2.0,297.4747883,6.199161234,-99999.0,'11133222,11111222,99999999' 
TABS,ioos:station:wmo:42043:1,2009-04-04T13:00:00Z,28.9818,-94.9186,2.0,284.9784367,8.705779689,-99999.0,'11133222,11111222,99999999' 
TABS,ioos:station:wmo:42043:1,2009-04-04T13:30:00Z,28.9818,-94.9186,2.0,283.9748684,6.749770366,-99999.0,'11133222,11111222,99999999' 
TABS,ioos:station:wmo:42043:1,2009-04-04T14:00:00Z,28.9818,-94.9186,2.0,295.9411136,9.029778513,-99999.0,'11133222,11111222,99999999' 
TABS,ioos:station:wmo:42043:1,2009-04-04T14:30:00Z,28.9818,-94.9186,2.0,290.1861767,7.244998275,-99999.0,'11133222,11111222,99999999' 
TABS,ioos:station:wmo:42043:1,2009-04-04T15:00:00Z,28.9818,-94.9186,2.0,304.2515979,9.061462354,-99999.0,'11133222,11111222,99999999' 
TABS,ioos:station:wmo:42043:1,2009-04-04T15:30:00Z,28.9818,-94.9186,2.0,304.771906,10.43299573,-99999.0,'11111222,11111222,99999999' 
TABS,ioos:station:wmo:42043:1,2009-04-04T16:00:00Z,28.9818,-94.9186,2.0,314.0909374,7.574067599,-99999.0,'11133222,11111222,99999999' 